Date String (YYYY-MM-DD hh:mm:ss) UTC,Instrument flags,absolute air pressure of the measurement (hPa),sample flow rate (lpm),inlet stack bypass flow (lpm),air temperature of the measurement (°C),ambient temperature measured by the external sensor (°C),aerosol sample conditioner tube jacket temperature (°C),OPC LED temperature (°C),internal box temperature (°C),relative humidity of the measurement (%),span deviation,mass concentration of particles derived from Lorenz-Mie calculation of OPC scattering (μg/m³),mass concentration of particles derived from Lorenz-Mie calculation of OPC scattering (μg/m³),mass concentration of particles derived from Lorenz-Mie calculation of OPC scattering (μg/m³)
DateTimeUTC,F1_M11,P_M11,Q1_M11,Q2_M11,T1_M11,T2_M11,T3_M11,T4_M11,T5_M11,U1_M11,ZSPAN_M11,X0_M11,X2_M11,X1_M11
2023-10-06 23:00:00,SystemResetWarning,0839.9,4.99,000.00,027.5,026.1,000.0,036.0,029.1,18.6,0000.0,0011.53,0006.33,0005.58
2023-10-06 23:01:00,SystemResetWarning,0839.9,4.99,000.00,027.5,026.1,000.0,036.0,029.1,18.6,0000.0,0011.70,0006.36,0005.61
2023-10-06 23:02:00,SystemResetWarning,0839.9,4.99,000.00,027.5,026.1,000.0,036.0,029.1,18.6,0000.0,0011.50,0006.33,0005.61
2023-10-06 23:03:00,SystemResetWarning,0839.9,5.00,000.00,027.5,026.1,000.0,036.0,029.1,18.6,0000.0,0011.59,0006.34,0005.60
2023-10-06 23:04:00,SystemResetWarning,0839.9,5.01,000.00,027.5,026.1,000.0,036.0,029.1,18.6,0000.0,0011.86,0006.37,0005.62
2023-10-06 23:05:00,SystemResetWarning,0839.8,5.00,000.00,027.5,026.1,000.0,036.0,029.1,18.5,0000.0,0012.42,0006.39,0005.64
2023-10-06 23:06:00,SystemResetWarning,0839.8,5.00,000.00,027.5,026.1,000.0,036.0,029.1,18.5,0000.0,0013.19,0006.41,0005.64
2023-10-06 23:07:00,SystemResetWarning,0839.8,5.00,000.00,027.5,026.1,000.0,036.0,029.1,18.4,0000.0,0014.14,0006.41,0005.65
2023-10-06 23:08:00,SystemResetWarning,0839.8,5.00,000.00,027.5,026.1,000.0,036.0,029.1,18.4,0000.0,0014.56,0006.46,0005.70
2023-10-06 23:09:00,SystemResetWarning,0839.8,5.00,000.00,027.5,026.0,000.0,036.0,029.1,18.4,0000.2,0014.83,0006.54,0005.75
2023-10-06 23:10:00,SystemResetWarning,0839.8,5.00,000.00,027.5,026.0,000.0,036.0,029.1,18.4,-000.2,0014.71,0006.60,0005.81
2023-10-06 23:11:00,SystemResetWarning,0839.8,5.01,000.00,027.5,026.0,000.0,036.0,029.1,18.4,-000.4,0014.43,0006.62,0005.85
2023-10-06 23:12:00,SystemResetWarning,0839.8,4.99,000.00,027.5,026.0,000.0,036.0,029.1,18.5,-000.0,0014.73,0006.70,0005.90
2023-10-06 23:13:00,SystemResetWarning,0839.8,4.99,000.00,027.5,026.1,000.0,036.0,029.1,18.6,0000.4,0015.84,0006.80,0005.97
2023-10-06 23:14:00,SystemResetWarning,0839.9,5.00,000.00,027.5,026.1,000.0,036.0,029.1,18.5,0000.2,0016.38,0006.88,0006.03
2023-10-06 23:15:00,SystemResetWarning,0839.8,5.01,000.00,027.5,026.1,000.0,036.0,029.1,18.3,-000.4,0016.46,0006.87,0006.06
2023-10-06 23:16:00,SystemResetWarning,0839.8,5.01,000.00,027.5,026.1,000.0,036.0,029.1,18.2,-000.2,0015.94,0006.94,0006.12
2023-10-06 23:17:00,SystemResetWarning,0839.8,5.00,000.00,027.5,026.1,000.0,036.0,029.1,18.3,0000.2,0015.81,0007.01,0006.18
2023-10-06 23:18:00,SystemResetWarning,0839.8,4.99,000.00,027.5,026.1,000.0,036.0,029.1,18.4,0000.1,0015.40,0007.08,0006.23
2023-10-06 23:19:00,SystemResetWarning,0839.8,4.99,000.00,027.5,026.1,000.0,036.0,029.1,18.4,0001.0,0015.53,0007.16,0006.29
2023-10-06 23:20:00,SystemResetWarning,0839.8,4.99,000.00,027.5,026.1,000.0,036.0,029.1,18.4,0001.8,0015.39,0007.23,0006.34
2023-10-06 23:21:00,SystemResetWarning,0839.8,5.00,000.00,027.5,026.1,000.0,036.0,029.1,18.3,0002.2,0016.13,0007.25,0006.38
2023-10-06 23:22:00,SystemResetWarning,0839.8,5.00,000.00,027.5,026.1,000.0,036.0,029.1,18.3,0002.5,0016.76,0007.35,0006.41
2023-10-06 23:23:00,SystemResetWarning,0839.8,5.00,000.00,027.5,026.1,000.0,036.0,029.1,18.3,0002.0,0017.02,0007.35,0006.42
2023-10-06 23:24:00,SystemResetWarning,0839.9,5.00,000.00,027.5,026.0,000.0,036.0,029.1,18.3,0001.6,0015.79,0007.30,0006.41
2023-10-06 23:25:00,SystemResetWarning,0839.9,5.00,000.00,027.5,026.0,000.0,036.0,029.1,18.3,0001.9,0015.37,0007.26,0006.40
2023-10-06 23:26:00,SystemResetWarning,0839.9,5.01,000.00,027.5,026.1,000.0,036.0,029.1,18.3,0002.6,0015.19,0007.24,0006.39
2023-10-06 23:27:00,SystemResetWarning,0839.8,5.00,000.00,027.5,026.1,000.0,035.9,029.1,18.4,0002.3,0015.68,0007.21,0006.37
2023-10-06 23:28:00,SystemResetWarning,0839.9,4.99,000.00,027.5,026.1,000.0,035.9,029.1,18.4,0002.1,0016.43,0007.19,0006.37
2023-10-06 23:29:00,SystemResetWarning,0839.8,4.99,000.00,027.5,026.1,000.0,035.9,029.1,18.2,0001.7,0015.88,0007.16,0006.35
2023-10-06 23:30:00,SystemResetWarning,0839.8,5.00,000.00,027.5,026.2,000.0,035.9,029.1,18.3,0001.4,0015.60,0007.09,0006.30
2023-10-06 23:31:00,SystemResetWarning,0839.8,5.01,000.00,027.5,026.2,000.0,035.9,029.1,18.4,0000.4,0015.85,0007.00,0006.23
2023-10-06 23:32:00,SystemResetWarning,0839.8,5.00,000.00,027.5,026.3,000.0,036.0,029.1,18.4,-000.3,0015.81,0007.01,0006.18
2023-10-06 23:33:00,SystemResetWarning,0839.8,5.00,000.00,027.5,026.2,000.0,036.0,029.2,18.4,-001.0,0015.35,0006.92,0006.13
2023-10-06 23:34:00,SystemResetWarning,0839.8,5.00,000.00,027.5,026.2,000.0,036.0,029.2,18.5,-000.8,0014.59,0006.85,0006.06
2023-10-06 23:35:00,SystemResetWarning,0839.8,4.99,000.00,027.5,026.2,000.0,036.0,029.2,18.4,-000.7,0015.16,0006.84,0006.00
2023-10-06 23:36:00,SystemResetWarning,0839.8,5.00,000.00,027.5,026.2,000.0,036.0,029.2,18.4,-000.4,0015.08,0006.80,0005.94
2023-10-06 23:37:00,SystemResetWarning,0839.8,5.00,000.00,027.5,026.2,000.0,036.0,029.2,18.3,-000.5,0014.93,0006.77,0005.90
2023-10-06 23:38:00,SystemResetWarning,0839.8,5.00,000.00,027.5,026.2,000.0,036.0,029.2,18.3,-000.2,0014.58,0006.74,0005.84
2023-10-06 23:39:00,SystemResetWarning,0839.8,5.00,000.00,027.5,026.2,000.0,036.0,029.2,18.3,-000.3,0013.26,0006.64,0005.77
2023-10-06 23:40:00,SystemResetWarning,0839.8,5.00,000.00,027.5,026.2,000.0,036.0,029.2,18.3,0001.0,0013.60,0006.59,0005.70
2023-10-06 23:41:00,SystemResetWarning,0839.8,5.00,000.00,027.5,026.2,000.0,036.0,029.2,18.3,0000.3,0013.69,0006.54,0005.64
2023-10-06 23:42:00,SystemResetWarning,0839.8,5.00,000.00,027.5,026.2,000.0,036.0,029.2,18.3,0000.0,0013.48,0006.50,0005.60
2023-10-06 23:43:00,SystemResetWarning,0839.9,5.00,000.00,027.5,026.2,000.0,036.0,029.2,18.3,0000.0,0013.66,0006.44,0005.56
2023-10-06 23:44:00,SystemResetWarning,0839.9,5.00,000.00,027.5,026.3,000.0,036.0,029.2,18.3,0000.3,0014.08,0006.43,0005.50
2023-10-06 23:45:00,SystemResetWarning,0839.9,5.00,000.00,027.6,026.3,000.0,036.0,029.2,18.3,0000.4,0015.00,0006.41,0005.48
2023-10-06 23:46:00,SystemResetWarning,0839.9,5.00,000.00,027.6,026.3,000.0,036.0,029.2,18.3,0000.5,0015.01,0006.36,0005.46
2023-10-06 23:47:00,SystemResetWarning,0840.0,5.00,000.00,027.6,026.3,000.0,036.0,029.2,18.3,0000.5,0016.11,0006.31,0005.42
2023-10-06 23:48:00,SystemResetWarning,0839.9,5.01,000.00,027.6,026.4,000.0,036.0,029.2,18.3,0000.3,0016.66,0006.26,0005.38
2023-10-06 23:49:00,SystemResetWarning,0839.9,5.01,000.00,027.6,026.4,000.0,036.0,029.2,18.3,0000.1,0017.01,0006.27,0005.36
2023-10-06 23:50:00,SystemResetWarning,0839.9,5.00,000.00,027.6,026.4,000.0,036.0,029.3,18.3,0000.4,0017.43,0006.32,0005.36
2023-10-06 23:51:00,SystemResetWarning,0839.9,5.00,000.00,027.6,026.5,000.0,036.0,029.3,18.3,-000.2,0017.48,0006.33,0005.39
2023-10-06 23:52:00,SystemResetWarning,0839.9,5.00,000.00,027.6,026.5,000.0,036.0,029.3,18.2,0000.1,0017.20,0006.32,0005.39
2023-10-06 23:53:00,SystemResetWarning,0839.9,5.00,000.00,027.7,026.5,000.0,036.0,029.3,18.1,0000.7,0016.99,0006.29,0005.37
2023-10-06 23:54:00,SystemResetWarning,0839.9,5.00,000.00,027.7,026.5,000.0,036.1,029.3,18.1,0001.1,0016.69,0006.25,0005.36
2023-10-06 23:55:00,SystemResetWarning,0839.9,4.99,000.00,027.7,026.5,000.0,036.1,029.4,18.1,0001.6,0016.17,0006.24,0005.36
2023-10-06 23:56:00,SystemResetWarning,0839.9,5.00,000.00,027.7,026.5,000.0,036.1,029.3,18.1,0001.5,0015.49,0006.21,0005.35
2023-10-06 23:57:00,SystemResetWarning,0839.9,5.00,000.00,027.7,026.5,000.0,036.1,029.3,18.1,0001.9,0015.20,0006.26,0005.36
2023-10-06 23:58:00,SystemResetWarning,0839.9,5.00,000.00,027.7,026.5,000.0,036.1,029.3,18.2,0001.9,0014.36,0006.29,0005.38
2023-10-06 23:59:00,SystemResetWarning,0839.9,5.00,000.00,027.7,026.6,000.0,036.1,029.4,18.1,0001.8,0014.02,0006.35,0005.41
